Regional Weather Roundup
Issued by NWS Upton, NY

Current Version | Previous Version | Text Only | Print | Product List | Glossary On
Versions: 1 2 3 4 5 6 7 8 9 10 11 12 13 14 15 16 17 18 19 20 21 22 23 24 25 26 27 28 29 30 31 32 33 34 35 36 37 38 39 40 41 42 43 44 45 46 47 48 49 50
208
ASUS41 KOKX 112308
RWROKX

REGIONAL WEATHER ROUNDUP
NATIONAL WEATHER SERVICE NEW YORK NY
600 PM EST MON DEC 11 2017

NOTE: "FAIR" INDICATES FEW OR NO CLOUDS BELOW 12,000 FEET WITH NO
SIGNIFICANT WEATHER AND/OR OBSTRUCTIONS TO VISIBILITY.

NYZ071-072-176-178-NJZ106-104-120000-
NEW YORK CITY METRO AREA

CITY           SKY/WX    TMP DP  RH WIND       PRES   REMARKS
Central Park   CLOUDY    38  21  50 VRB3      30.02S
Bronx Bot Gard   N/A     39  19  45 W2        30.00F
Bronx Lehman C   N/A     39  21  48 NW1         N/A
LaGuardia APRT MOCLDY    40  20  44 SW7       30.01R
Queens College   N/A     39  23  52 NW5         N/A
Kennedy INTL   MOCLDY    37  24  59 W9        30.03R WCI  30
Breezy Point     N/A     37 N/A N/A W7          N/A  WCI  32
Brooklyn Coll    N/A     41  23  48 W5          N/A
Staten Island    N/A     37  23  56 W2          N/A
Newark/Liberty MOCLDY    38  21  50 W8        30.02R WCI  32
Teterboro      CLOUDY    40  21  46 VRB6      30.00R
$$

NYZ177-179-078>081-120000-
LONG ISLAND NEW YORK

CITY           SKY/WX    TMP DP  RH WIND       PRES   REMARKS
Jones Beach      N/A     39 N/A N/A W5          N/A
Wantagh          N/A     39  23  52 NE1         N/A
Matinecock PT    N/A     39 N/A N/A W3          N/A
Farmingdale    PTCLDY    35  23  61 SE3       30.02R
MacArthur/ISP  CLOUDY    34  23  64 CALM      30.01R
Shirley        PTCLDY    32  25  75 CALM      30.02R
Mt Sinai Harb    N/A    N/A N/A N/A N5          N/A
Westhampton    MOCLDY    28  21  75 CALM      30.03R
East Hampton   MOCLDY    29  23  78 CALM      30.02R
Southold         N/A     37  25  60 W1          N/A
Montauk          N/A     40  25  55 SW3       30.03R
$$

NYZ052-065-067-120000-
HUDSON VALLEY

CITY           SKY/WX    TMP DP  RH WIND       PRES   REMARKS
White Plains   PTCLDY    34  20  56 CALM      29.98R
Larchmont Harb   N/A     37 N/A N/A MISG        N/A
Croton On Huds   N/A     36 N/A N/A CALM        N/A
Somers           N/A     34  21  60 CALM        N/A
Brewster         N/A     32  21  64 CALM        N/A
Newburgh       MOCLDY    34  21  60 CALM      29.97F
Montgomery     CLOUDY    32  24  72 CALM      29.96R
Otisville        N/A     32  21  64 CALM        N/A
Warwick          N/A     34  23  64 SE1         N/A
Suffern          N/A     34  21  60 E1          N/A
Poughkeepsie   CLOUDY    34  20  56 CALM      29.97F
Albany         CLOUDY    30  18  60 N7        30.01S WCI  23
$$

NJZ001-105-106-008-010-013-015-019>022-104-120000-
NEW JERSEY

CITY           SKY/WX    TMP DP  RH WIND       PRES   REMARKS
Newark/Liberty MOCLDY    38  21  50 W8        30.02R WCI  32
Teterboro      CLOUDY    40  21  46 VRB6      30.00R
Caldwell       CLOUDY    36  21  54 S3        30.00S
Somerville     CLOUDY    30  26  85 CALM      29.99R
Linden         FAIR      38  20  49 CALM      30.02S
Perth Amboy      N/A     37 N/A N/A SW5         N/A  WCI  34
Sussex         CLOUDY    33  23  66 CALM      29.97S
Andover        NOT AVBL
Trenton        CLEAR     32  22  66 CALM      30.01R
Millville      CLEAR     31  27  85 CALM      30.02S
Atlantic City  CLEAR     31  24  75 CALM      30.03S
Wrightstown    CLEAR     32  25  75 CALM      30.00R
Toms River     CLEAR     27  25  92 CALM      30.04R
Belmar         CLEAR     37  21  52 SW5       30.04R WCI  33
$$

PAZ047>061-062-071-120000-
EASTERN PENNSYLVANIA

CITY           SKY/WX    TMP DP  RH WIND       PRES   REMARKS
Philadelphia   PTCLDY    37  22  54 SE5       30.02S WCI  33
Allentown      MOCLDY    37  20  50 E5        29.97F WCI  33
Scranton       CLOUDY    32  21  64 CALM      29.93S
$$

CTZ002-004>006-009-010-012-RIZ004-006-007-MAZ004-011-015-120000-
SOUTHERN NEW ENGLAND
 IN CT

CITY           SKY/WX    TMP DP  RH WIND       PRES   REMARKS
Bradley INTL   MOCLDY    34  17  50 CALM      30.00S
Hartford       CLOUDY    36  21  54 CALM      30.01S
Danbury        CLOUDY    33  22  63 CALM      29.99R
Wtrbury/Oxford PTCLDY    31  20  63 CALM      29.97S
Norwalk Harbor   N/A     36 N/A N/A N5          N/A  WCI  32
Bridgeport     CLOUDY    38  20  48 N3        30.01S
Meriden        PTCLDY    31  22  69 CALM      30.00S
New Haven      MOCLDY    37  19  48 CALM      30.01S
Chester        FAIR      34  19  55 CALM      29.99S
Groton         PTCLDY    35  24  64 CALM      30.01R
Wilimantic     PTCLDY    31  24  75 CALM      30.00F

 IN RI

CITY           SKY/WX    TMP DP  RH WIND       PRES   REMARKS
Providence     MOCLDY    36  22  56 N5        30.03R WCI  32
Block Island   CLOUDY    38  26  62 CALM      30.02R
Westerly       CLOUDY    32  26  78 CALM      30.02R
 IN MA

CITY           SKY/WX    TMP DP  RH WIND       PRES   REMARKS
Boston         MOCLDY    36  19  50 W8        30.03R WCI  30
Worcester      PTCLDY    29  15  56 CALM      29.96S
Westfield      PTCLDY    29  21  72 NE3       29.98F
Provincetown   PTCLDY    36  22  56 W8        30.02R WCI  30
Nantucket      CLEAR     34  26  72 NW5       30.02R WCI  30
$$

ANZ330-335-338-340-345-350-353-355-120000-
COASTAL MARINE OBSERVATIONS


STATION/POSITION TIME  SKY/WX   TEMP    WIND        PRES    VSBY  WAVE
                                AIR SEA DIR/SP/G                  HT/PER
                 (UTC)          (F)     (DEG/KT/KT) (MB)    (MI)  (FT/S)
NY HARB ENTRANCE 2150            42 52  290/ 10/ 12 1015.8          2/ 8
20 S FIRE ISLAND 2150            41 53  290/ 10/ 14 1016.3          3/ 8
GREAT SOUTH BAY  2230            38 45   50/  2/  4   N/A
HUDSON CANYON    2150            43 56  290/  8/ 12 1016.5          4/ 5
KINGS POINT      2230            40 45   10/  3/  5 1016.8
EXECUTION ROCKS  2230            40      10/  4/  6   N/A
WESTERN LI SOUND 2149            40     330/  6/ 10   N/A           0
CENTRAL LI SOUND NOT AVBL
ROBBINS REEF     2230            40     260/  7/  8 1016.7
$$


>>>>>>>>>>>>>>>>>>>>>>>>>>>> KEY <<<<<<<<<<<<<<<<<<<<<<<<<<<
>                                                          <
>     SKY/WX - Sky Condition/Present Weather               <
>     TMP    - Temperature in Fahrenheit                   <
>     DP     - Dew Point in Fahrenheit                     <
>     RH     - Relative Humidity in Percent                <
>     WIND   - Direction (from) and Speed in MPH           <
>     PRES   - Mean Sea Level Pressure (inches of Hg)      <
>     WCI    - Wind Chill Index                            <
>     VSB    - VISIBILITY IN MILES                         <
>     HX     - HEAT INDEX                                  <
>     TC     - TEMPERATURE IN CELSIUS                      <
>     VRB    - VARIABLE WIND DIRECTION                     <
>                                                          <
>>>>>>>>>>>>>>>>>>>>>>>>>>>> KEY <<<<<<<<<<<<<<<<<<<<<<<<<<<




USA.gov is the U.S. government's official web portal to all federal, state and local government web resources and services.